Skip Page Navigation
NASA JPL Caltech
NASA Logo - Jet Propulsion Laboratory + View the NASA Portal
+ Center for Near-Earth Object Studies
JPL Home Earth Solar System Stars & Galaxies Technology
JPL Solar System Dynamics
BODIES ORBITS EPHEMERIDES TOOLS PHYSICAL DATA DISCOVERY FAQ SITE MAP
JPL Small-Body Database Browser
Search: [ help ]  
152986 (2000 HS3)
Classification: Main-belt Asteroid          SPK-ID: 2152986
Ephemeris | Orbit Diagram | Orbital Elements | Mission Design | Physical Parameters | Discovery Circumstances | Close-Approach Data ]

[ show orbit diagram ]
Orbital Elements at Epoch 2459200.5 (2020-Dec-17.0) TDB
Reference: JPL 20 (heliocentric ecliptic J2000)
 Element Value Uncertainty (1-sigma)   Units 
e .09993362693018297 5.7124e-08  
a 2.345290582666344 9.9004e-09 au
q 2.110917188535294 1.3677e-07 au
i .3907988879175234 4.4554e-06 deg
node 206.2791551606512 0.00075587 deg
peri 289.5651078378099 0.00075614 deg
M 328.705936819739 2.0554e-05 deg
tp 2459314.538860912049
(2021-Apr-10.03886091)
7.5074e-05 TDB
period 1311.877901308533
3.59
8.3069e-06
2.274e-08
d
yr
n .2744157818657649 1.7376e-09 deg/d
Q 2.579663976797394 1.089e-08 au
  Orbit Determination Parameters
   # obs. used (total)      476  
   data-arc span      8154 days (22.32 yr)  
   first obs. used      1998-10-13  
   last obs. used      2021-02-08  
   planetary ephem.      DE441  
   SB-pert. ephem.      SB441-N16  
   condition code      0  
   norm. resid. RMS      .57247  
   source      ORB  
   producer      Otto Matic  
   solution date      2021-Apr-13 19:29:33  

Additional Information
 Earth MOID = 1.12465 au 
 Jupiter MOID = 2.43619 au 
 T_jup = 3.555 
[ show covariance matrix ]

Ephemeris | Orbit Diagram | Orbital Elements | Mission Design | Physical Parameters | Discovery Circumstances | Close-Approach Data ]

Physical Parameter Table
Parameter Symbol Value Units Sigma Reference Notes
absolute magnitude H 17.1   n/a MPO280798  

152986 (2000 HS3)          Discovered 2000-Apr-26 by Spacewatch at Kitt Peak
Reference: 20070402/Numbers.arcLast Updated: 2007-04-04

[ show close-approach data ]
Alternate Designations
 2000 HS3 = 1998 TF12 
Ephemeris | Orbit Diagram | Orbital Elements | Mission Design | Physical Parameters | Discovery Circumstances | Close-Approach Data ]
ABOUT SSD CREDITS/AWARDS PRIVACY/COPYRIGHT GLOSSARY LINKS
FirstGov 2021-Apr-19 14:35 UT
(server date/time)  
NASA Home Page
Site Manager:   Ryan S. Park
Webmaster  Alan B. Chamberlin